Location: Earls Croome
(52.0667°N, 2.2000°W)
Time: 00:49:21
(UTC+00:00)

Cosmos 2219 Rocket - Pass Details

Date: 17 November 2019
Orbit: 827 x 847 km, 71.0° (Epoch: 09 December)

Event Time Altitude Azimuth Distance (km) Brightness Sun altitude
Exits shadow 05:39:00 - 335° (NNW) 2,650 4.5 -17.0°
Reaches altitude 10° 05:39:31 10° 337° (NNW) 2,467 4.3 -17.0°
Maximum altitude 05:44:53 42° 48° (NE) 1,186 3.3 -16.1°
Drops below altitude 10° 05:50:15 10° 119° (ESE) 2,466 5.8 -15.3°
Sets 05:52:50 0° 127° (SE) 3,400 6.6 -14.9°
